Date String (YYYY-MM-DD hh:mm:ss) UTC,Instrument flags,absolute air pressure of the measurement (hPa),sample flow rate (lpm),inlet stack bypass flow (lpm),air temperature of the measurement (°C),ambient temperature measured by the external sensor (°C),aerosol sample conditioner tube jacket temperature (°C),OPC LED temperature (°C),internal box temperature (°C),relative humidity of the measurement (%),span deviation,mass concentration of particles derived from Lorenz-Mie calculation of OPC scattering (μg/m³),mass concentration of particles derived from Lorenz-Mie calculation of OPC scattering (μg/m³),mass concentration of particles derived from Lorenz-Mie calculation of OPC scattering (μg/m³)
DateTimeUTC,F1_M11,P_M11,Q1_M11,Q2_M11,T1_M11,T2_M11,T3_M11,T4_M11,T5_M11,U1_M11,ZSPAN_M11,X0_M11,X2_M11,X1_M11
2023-06-13 13:00:00,SystemResetWarning,0830.2,5.00,000.00,029.7,028.0,000.0,038.2,031.1,28.2,0000.8,0013.01,0009.78,0009.31
2023-06-13 13:01:00,SystemResetWarning,0830.2,5.00,000.00,029.7,028.0,000.0,038.2,031.2,28.2,0000.8,0012.92,0009.75,0009.27
2023-06-13 13:02:00,SystemResetWarning,0830.2,5.00,000.00,029.7,028.0,000.0,038.2,031.2,28.2,0000.9,0012.85,0009.72,0009.25
2023-06-13 13:03:00,SystemResetWarning,0830.2,5.01,000.00,029.7,028.0,000.0,038.2,031.1,28.2,0000.8,0013.39,0009.71,0009.23
2023-06-13 13:04:00,SystemResetWarning,0830.3,5.00,000.00,029.7,028.0,000.0,038.2,031.1,28.2,0000.8,0013.92,0009.71,0009.21
2023-06-13 13:05:00,SystemResetWarning,0830.2,5.01,000.00,029.7,028.0,000.0,038.2,031.1,28.2,0000.6,0013.84,0009.65,0009.15
2023-06-13 13:06:00,SystemResetWarning,0830.2,4.99,000.00,029.7,028.0,000.0,038.2,031.1,28.2,0000.5,0013.88,0009.61,0009.11
2023-06-13 13:07:00,SystemResetWarning,0830.2,5.00,000.00,029.7,028.0,000.0,038.2,031.1,28.3,0000.5,0014.43,0009.63,0009.11
2023-06-13 13:08:00,SystemResetWarning,0830.3,5.00,000.00,029.7,028.0,000.0,038.2,031.1,28.3,0000.2,0014.36,0009.61,0009.07
2023-06-13 13:09:00,SystemResetWarning,0830.2,5.02,000.00,029.7,028.0,000.0,038.2,031.1,28.3,0000.3,0014.37,0009.62,0009.08
2023-06-13 13:10:00,SystemResetWarning,0830.2,5.00,000.00,029.7,028.0,000.0,038.2,031.2,28.3,0000.3,0014.28,0009.62,0009.11
2023-06-13 13:11:00,SystemResetWarning,0830.2,4.99,000.00,029.7,028.0,000.0,038.2,031.1,28.3,0000.6,0014.27,0009.61,0009.11
2023-06-13 13:12:00,SystemResetWarning,0830.2,5.00,000.00,029.7,028.0,000.0,038.2,031.1,28.4,0000.8,0014.41,0009.66,0009.14
2023-06-13 13:13:00,SystemResetWarning,0830.3,5.01,000.00,029.7,028.0,000.0,038.2,031.1,28.3,0000.8,0014.51,0009.72,0009.22
2023-06-13 13:14:00,SystemResetWarning,0830.3,5.00,000.00,029.7,028.0,000.0,038.2,031.1,28.3,0000.9,0014.04,0009.78,0009.31
2023-06-13 13:15:00,SystemResetWarning,0830.3,4.99,000.00,029.7,028.0,000.0,038.2,031.1,28.4,0001.0,0013.56,0009.85,0009.38
2023-06-13 13:16:00,SystemResetWarning,0830.2,5.00,000.00,029.7,028.0,000.0,038.2,031.1,28.4,0001.1,0013.69,0009.97,0009.50
2023-06-13 13:17:00,SystemResetWarning,0830.3,5.01,000.00,029.7,028.0,000.0,038.2,031.1,28.3,0001.2,0013.77,0010.06,0009.58
2023-06-13 13:18:00,SystemResetWarning,0830.3,5.00,000.00,029.7,028.0,000.0,038.2,031.1,28.3,0001.2,0013.24,0010.09,0009.63
2023-06-13 13:19:00,SystemResetWarning,0830.3,5.00,000.00,029.7,028.0,000.0,038.2,031.1,28.4,0001.2,0013.40,0010.21,0009.71
2023-06-13 13:20:00,SystemResetWarning,0830.3,4.99,000.00,029.7,028.0,000.0,038.2,031.2,28.3,0001.3,0013.49,0010.24,0009.71
2023-06-13 13:21:00,SystemResetWarning,0830.3,4.99,000.00,029.7,028.0,000.0,038.2,031.1,28.3,0001.6,0013.46,0010.21,0009.68
2023-06-13 13:22:00,SystemResetWarning,0830.3,5.01,000.00,029.7,028.0,000.0,038.2,031.1,28.4,0001.5,0013.50,0010.24,0009.71
2023-06-13 13:23:00,SystemResetWarning,0830.3,5.01,000.00,029.7,028.0,000.0,038.2,031.1,28.4,0001.3,0013.49,0010.24,0009.72
2023-06-13 13:24:00,SystemResetWarning,0830.3,5.00,000.00,029.7,028.0,000.0,038.2,031.1,28.5,0001.2,0013.43,0010.18,0009.66
2023-06-13 13:25:00,SystemResetWarning,0830.3,5.00,000.00,029.7,028.0,000.0,038.2,031.1,28.5,0001.1,0013.45,0010.12,0009.58
2023-06-13 13:26:00,SystemResetWarning,0830.3,5.00,000.00,029.7,028.0,000.0,038.2,031.1,28.6,0001.2,0013.72,0010.07,0009.52
2023-06-13 13:27:00,SystemResetWarning,0830.3,5.00,000.00,029.7,028.0,000.0,038.2,031.1,28.6,0001.2,0013.59,0009.96,0009.45
2023-06-13 13:28:00,SystemResetWarning,0830.3,5.00,000.00,029.7,028.0,000.0,038.2,031.1,28.5,0001.0,0013.60,0009.86,0009.36
2023-06-13 13:29:00,SystemResetWarning,0830.3,5.00,000.00,029.7,028.0,000.0,038.2,031.1,28.7,0000.8,0013.93,0009.85,0009.33
2023-06-13 13:30:00,SystemResetWarning,0830.2,5.00,000.00,029.7,028.0,000.0,038.2,031.1,28.8,0000.9,0013.94,0009.80,0009.32
2023-06-13 13:31:00,SystemResetWarning,0830.2,5.00,000.00,029.7,028.0,000.0,038.2,031.1,29.0,0000.9,0013.86,0009.81,0009.36
2023-06-13 13:32:00,SystemResetWarning,0830.2,5.01,000.00,029.7,028.0,000.0,038.2,031.1,28.9,0000.4,0013.93,0009.88,0009.45
2023-06-13 13:33:00,SystemResetWarning,0830.2,5.01,000.00,029.7,028.0,000.0,038.2,031.1,28.9,0000.3,0014.03,0009.97,0009.52
2023-06-13 13:34:00,SystemResetWarning,0830.2,4.99,000.00,029.7,028.0,000.0,038.2,031.1,29.0,0000.4,0014.09,0010.05,0009.59
2023-06-13 13:35:00,SystemResetWarning,0830.2,5.00,000.00,029.7,028.0,000.0,038.2,031.1,29.1,0000.3,0014.25,0010.18,0009.68
2023-06-13 13:36:00,SystemResetWarning,0830.2,4.99,000.00,029.7,028.0,000.0,038.2,031.1,28.9,0000.3,0014.37,0010.29,0009.77
2023-06-13 13:37:00,SystemResetWarning,0830.2,5.00,000.00,029.7,028.0,000.0,038.2,031.1,28.9,0000.5,0014.16,0010.34,0009.85
2023-06-13 13:38:00,SystemResetWarning,0830.2,5.00,000.00,029.7,028.0,000.0,038.2,031.1,28.9,0000.4,0014.32,0010.45,0009.93
2023-06-13 13:39:00,SystemResetWarning,0830.2,5.01,000.00,029.7,028.0,000.0,038.2,031.1,29.0,0000.6,0014.35,0010.55,0010.02
2023-06-13 13:40:00,SystemResetWarning,0830.3,4.99,000.00,029.7,028.0,000.0,038.2,031.1,28.9,0001.1,0014.02,0010.55,0010.04
2023-06-13 13:41:00,SystemResetWarning,0830.2,4.98,000.00,029.7,028.0,000.0,038.2,031.1,28.9,0001.1,0014.27,0010.55,0010.03
2023-06-13 13:42:00,SystemResetWarning,0830.2,5.01,000.00,029.7,028.0,000.0,038.2,031.1,29.0,0001.0,0014.43,0010.52,0009.97
2023-06-13 13:43:00,SystemResetWarning,0830.2,5.01,000.00,029.7,028.0,000.0,038.2,031.1,29.0,0001.1,0015.24,0010.47,0009.89
2023-06-13 13:44:00,SystemResetWarning,0830.3,5.01,000.00,029.7,028.0,000.0,038.2,031.1,29.1,0001.0,0015.29,0010.37,0009.80
2023-06-13 13:45:00,SystemResetWarning,0830.2,5.00,000.00,029.7,028.0,000.0,038.2,031.1,29.0,0001.0,0015.11,0010.24,0009.72
2023-06-13 13:46:00,SystemResetWarning,0830.3,4.99,000.00,029.7,028.0,000.0,038.2,031.1,29.0,0001.3,0014.88,0010.08,0009.59
2023-06-13 13:47:00,SystemResetWarning,0830.3,4.99,000.00,029.7,028.0,000.0,038.2,031.1,29.0,0001.4,0014.74,0009.97,0009.47
2023-06-13 13:48:00,SystemResetWarning,0830.3,5.01,000.00,029.7,028.0,000.0,038.2,031.1,29.1,0000.9,0014.58,0009.87,0009.34
2023-06-13 13:49:00,SystemResetWarning,0830.3,5.01,000.00,029.7,028.0,000.0,038.2,031.1,29.1,0000.9,0014.44,0009.77,0009.25
2023-06-13 13:50:00,SystemResetWarning,0830.3,4.99,000.00,029.7,028.0,000.0,038.2,031.1,29.1,0000.9,0014.31,0009.69,0009.20
2023-06-13 13:51:00,SystemResetWarning,0830.3,5.01,000.00,029.7,028.0,000.0,038.2,031.1,29.0,0000.6,0014.20,0009.59,0009.10
2023-06-13 13:52:00,SystemResetWarning,0830.3,4.99,000.00,029.7,028.0,000.0,038.2,031.1,29.1,0000.6,0013.72,0009.51,0009.03
2023-06-13 13:53:00,SystemResetWarning,0830.3,4.99,000.00,029.7,028.0,000.0,038.2,031.1,29.1,0000.7,0013.51,0009.44,0008.98
2023-06-13 13:54:00,SystemResetWarning,0830.3,5.01,000.00,029.7,027.9,000.0,038.2,031.1,29.1,0000.5,0012.75,0009.39,0008.92
2023-06-13 13:55:00,SystemResetWarning,0830.3,5.01,000.00,029.6,027.9,000.0,038.2,031.0,29.1,0000.5,0012.49,0009.31,0008.85
2023-06-13 13:56:00,SystemResetWarning,0830.3,5.00,000.00,029.6,027.9,000.0,038.2,031.0,29.1,0000.3,0012.41,0009.21,0008.70
2023-06-13 13:57:00,SystemResetWarning,0830.3,4.98,000.00,029.6,027.9,000.0,038.2,031.0,29.0,0000.1,0012.40,0009.06,0008.52
2023-06-13 13:58:00,SystemResetWarning,0830.3,5.01,000.00,029.6,027.9,000.0,038.2,031.0,28.9,-000.1,0012.29,0008.89,0008.34
2023-06-13 13:59:00,SystemResetWarning,0830.3,5.02,000.00,029.6,027.9,000.0,038.2,031.0,28.9,0000.0,0012.08,0008.73,0008.20
